User: anonymous   Login
Location: Fort Wayne
(41.1310°N, 85.1290°W)
Time: 15:59:54
(UTC-05:00)
Language:

Cosmos 1980 - Orbit

View from above orbital plane
View from above orbital plane
View from above satellite
View from above satellite

Ground track
Ground track

The orbit data is extracted from the following two-line orbital elements,

1 19649U 88102A   14327.27853003  .00000276  00000-0  16850-3 0  9159
2 19649 071.0016 232.1341 0007581 291.0619 068.9692 14.14567849342076
Epoch (UTC): 23 November 2014 06:41:04
Eccentricity: 0.0007581
inclination: 71.0016°
perigee height: 838 km
apogee height: 849 km
right ascension of ascending node: 232.1341°
argument of perigee: 291.0619°
revolutions per day: 14.14567849
mean anomaly at epoch: 68.9692°
orbit number at epoch: 34207

The dashed part of the orbit path shows where the satellite is in the earth's shadow,  

DLR